Regional Weather Roundup
Issued by NWS

Home | Current Version | Previous Version | Text Only | Print | Product List | Glossary On
Versions: 1 2 3 4 5 6 7 8 9 10 11 12 13 14 15 16 17 18 19 20 21 22 23 24 25 26 27 28 29 30 31 32 33 34 35 36 37 38 39 40 41 42 43 44 45 46 47 48 49 50
000
ASUS44 KOUN 302310
RWROK

WEATHER ROUNDUP FOR OKLAHOMA
NATIONAL WEATHER SERVICE NORMAN OK
600 PM CDT THU OCT 30 2014

NOTE: "FAIR" INDICATES FEW OR NO CLOUDS BELOW 12,000 FEET WITH NO
      SIGNIFICANT WEATHER AND/OR OBSTRUCTIONS TO VISIBILITY.

OKZ001>007-009>012-014-015-017-310000-
NORTHWEST OKLAHOMA AND THE PANHANDLE

CITY           SKY/WX    TMP DP  RH WIND       PRES   REMARKS
GAGE           CLEAR     71  28  20 N16G24    30.21R
ENID/WOODRING  CLEAR     73  36  25 NW16G23   30.12R
$$

OKZ016-021>023-033>039-044-045-310000-
SOUTHWEST OKLAHOMA

CITY           SKY/WX    TMP DP  RH WIND       PRES   REMARKS
LAWTON/REGL    CLEAR     76  33  21 N15       30.12R
LAWTON/FT SILL CLEAR     74  35  23 N12       30.12R
FREDERICK      LGT RAIN  78  31  17 N15       30.10R
CLINTON        CLEAR     74  32  21 N14       30.18S
HOBART         LGT RAIN  74  34  23 NE15      30.16R
ALTUS AFB      CLEAR     76  33  21 N15G21    30.15R
$$

OKZ018>020-024>031-310000-
CENTRAL OKLAHOMA

CITY           SKY/WX    TMP DP  RH WIND       PRES   REMARKS
OKLAHOMA CITY  CLEAR     73  34  23 N13       30.12S
OKC/WILEY POST CLEAR     72  35  25 N15       30.13R
OKC/TINKER AFB CLEAR     72  36  26 N13       30.12R
STILLWATER     CLEAR     72  37  28 N10       30.11R
GUTHRIE        CLEAR     72  36  26 VRB5G17   30.12R
$$

OKZ008-013-054>072-310000-
NORTHEAST OKLAHOMA

CITY           SKY/WX    TMP DP  RH WIND       PRES   REMARKS
TULSA          CLEAR     72  36  26 N14       30.06R
TULSA/JONES    CLEAR     73  36  25 N7        30.07R
PONCA CITY     CLEAR     71  35  26 N13G23    30.11R
BARTLESVILLE   CLEAR     68  37  32 VRB3      30.10R
MUSKOGEE       CLEAR     70  41  34 NW7       30.07R
$$

OKZ032-040>043-046>053-073>077-310000-
SOUTH CENTRAL/SOUTHEAST OKLAHOMA

CITY           SKY/WX    TMP DP  RH WIND       PRES   REMARKS
ARDMORE/DWNTWN CLEAR     73  39  29 N5        30.08R
MCALESTER      PTCLDY    74  40  29 N10       30.07R
$$




USA.gov is the U.S. government's official web portal to all federal, state and local government web resources and services.